Zurück zum Katalog

CZ-4C DEB

AktivLEO
NORAD 44617·DEBRIS·🇨🇳 China

Gestartet Apr 10, 2018 von Taiyuan Satellite Launch Center

Loading…

Nächste Überflüge (nächste 24 Stunden)

TLE

AlterndSource: Space-Track

Epoche: Sep 12, 2026, 16:18 UTC

1 44617U 18034J   26255.67918129 -.00000048  00000-0  61900-4 0  9994
2 44617  63.3959 287.0332 0259743   7.5826 352.9008 13.41014693405976

Verfolge CZ-4C DEB in Echtzeit mit AllMySat

Download on the App Store